User: anonymous
Location: Elk Forest
(39.5314°N, 75.8738°W)
Time: 21:30:25
(UTC-04:00)
Language:

Resurs 01 Rocket - Orbit

View from above orbital plane
View from above orbital plane
View from above satellite
View from above satellite

Ground track
Ground track

The orbit data is extracted from the following two-line orbital elements,

1 23343U 94074B   14258.65119330  .00000334  00000-0  56097-4 0  1057
2 23343 098.2264 264.1760 0007979 061.5526 075.0932 14.76188384 68449
Epoch (UTC): 15 September 2014 15:37:43
Eccentricity: 0.0007979
inclination: 98.2264°
perigee height: 636 km
apogee height: 647 km
right ascension of ascending node: 264.1760°
argument of perigee: 61.5526°
revolutions per day: 14.76188384
mean anomaly at epoch: 75.0932°
orbit number at epoch: 6844

The dashed part of the orbit path shows where the satellite is in the earth's shadow,  

DLR